GW7964 Weather Reports


time (UTC)temp
C
wind
direction
speed
KPH
gust
KPH
rain 1hr
cm
rain 24hr
cm
rain mn
cm
humidity
%
barometer
mb
20260831055557 24 246 0.0 1.6 0.00 6.48 0.00 99 1010.1
20260831055035 24 315 0.0 1.6 0.00 6.48 0.00 99 1010.3
20260831054513 24 202 1.6 3.2 0.00 6.48 0.00 99 1010.4
20260831053951 24 218 1.6 1.6 0.00 6.48 0.00 99 1010.5
20260831053429 24 44 0.0 3.2 0.00 6.48 0.00 99 1010.4
20260831052907 24 68 3.2 3.2 0.00 6.48 0.00 99 1010.7
20260831052345 24 29 0.0 1.6 0.00 6.48 0.00 99 1010.2
20260831051823 24 202 0.0 0.0 0.00 6.48 0.00 99 1010.6
20260831051300 24 50 0.0 1.6 0.00 6.48 0.00 99 1010.5
20260831050738 24 19 3.2 3.2 0.00 6.48 0.00 99 1010.5
20260831050216 24 37 0.0 1.6 0.00 6.48 0.00 99 1010.7
20260831045653 24 212 0.0 1.6 0.00 6.50 6.50 99 1010.8
20260831045131 24 226 0.0 0.0 0.00 6.50 6.50 99 1010.7
20260831044609 24 25 0.0 0.0 0.00 6.50 6.50 99 1010.9
20260831044047 24 25 0.0 1.6 0.00 6.50 6.50 99 1010.7
20260831043525 24 44 0.0 1.6 0.00 6.50 6.50 99 1010.8
20260831043002 24 224 0.0 0.0 0.00 6.50 6.50 99 1010.9
20260831042440 24 219 3.2 3.2 0.00 6.50 6.50 99 1011.1
20260831041918 24 213 0.0 1.6 0.00 6.50 6.50 99 1010.8
20260831041356 24 104 0.0 0.0 0.00 6.50 6.50 99 1011.0
20260831040834 24 25 0.0 0.0 0.00 6.50 6.50 99 1011.1
20260831040312 24 44 0.0 0.0 0.00 6.50 6.50 99 1011.1
20260831035750 24 44 0.0 0.0 0.00 6.50 6.50 99 1010.9
20260831035227 24 29 0.0 1.6 0.00 6.50 6.50 99 1010.9
20260831034704 24 44 0.0 0.0 0.00 6.50 6.50 99 1011.0
20260831034142 24 224 0.0 0.0 0.00 6.50 6.50 99 1011.1
20260831033620 24 217 0.0 0.0 0.00 6.50 6.50 99 1010.7
20260831033058 24 234 0.0 1.6 0.00 6.50 6.50 99 1010.8
20260831032536 24 269 0.0 0.0 0.00 6.50 6.50 99 1010.9
20260831032014 24 12 3.2 3.2 0.00 6.50 6.50 99 1010.9
20260831031450 24 39 3.2 3.2 0.00 6.50 6.50 99 1011.0
20260831030926 24 44 0.0 0.0 0.00 6.50 6.50 99 1010.9
20260831030404 24 333 0.0 0.0 0.00 6.50 6.50 99 1011.0
20260831025842 24 209 0.0 0.0 0.00 6.50 6.50 99 1010.7
20260831025320 24 193 0.0 0.0 0.00 6.50 6.50 99 1011.0
20260831024758 24 343 0.0 0.0 0.00 6.50 6.50 99 1011.0
20260831024236 24 94 0.0 0.0 0.00 6.50 6.50 99 1010.8
20260831023713 24 217 0.0 0.0 0.00 6.50 6.50 99 1010.7
20260831023151 24 25 0.0 1.6 0.00 6.50 6.50 99 1010.9
20260831022629 24 304 0.0 0.0 0.00 6.50 6.50 99 1010.8
20260831022107 24 28 0.0 1.6 0.00 6.50 6.50 99 1010.8
20260831021546 24 37 0.0 0.0 0.00 6.50 6.50 99 1010.7
20260831021024 24 25 0.0 0.0 0.00 6.50 6.50 99 1010.6
20260831020459 24 205 0.0 0.0 0.00 6.50 6.50 99 1010.6
20260831015937 24 203 0.0 1.6 0.00 6.50 6.50 99 1010.6
20260831015414 24 205 0.0 1.6 0.00 6.50 6.50 99 1010.5
20260831014852 24 3 1.6 3.2 0.00 6.50 6.50 99 1010.4
20260831014329 24 345 0.0 0.0 0.00 6.50 6.50 99 1010.5
20260831013807 24 142 0.0 0.0 0.00 6.50 6.50 99 1010.2
20260831013245 24 202 0.0 0.0 0.00 6.50 6.50 99 1010.2
20260831012723 24 209 0.0 1.6 0.00 6.50 6.50 99 1010.1
20260831012201 24 117 0.0 0.0 0.00 6.50 6.50 99 1010.1
20260831011639 24 50 0.0 3.2 0.00 6.50 6.50 99 1010.0
20260831011117 24 194 0.0 1.6 0.00 6.50 6.50 99 1009.8
20260831010555 24 135 0.0 0.0 0.00 6.50 6.50 99 1009.8
20260831010033 24 356 0.0 0.0 0.00 6.50 6.50 99 1009.7
20260831005511 24 8 0.0 1.6 0.00 6.50 6.50 99 1009.6
20260831004948 24 48 1.6 3.2 0.00 6.50 6.50 99 1009.8
20260831004426 24 209 0.0 0.0 0.00 6.50 6.50 99 1009.6
20260831003904 24 157 0.0 3.2 0.00 6.50 6.50 99 1009.6
20260831003342 25 107 0.0 0.0 0.00 6.50 6.50 98 1009.7
20260831002820 25 41 1.6 1.6 0.00 6.50 6.50 97 1009.7
20260831002258 25 234 3.2 6.4 0.00 6.50 6.50 97 1009.6
20260831001736 25 202 0.0 3.2 0.00 6.50 6.50 97 1009.6
20260831001214 25 271 1.6 4.8 0.00 6.50 6.50 98 1009.6
20260831000652 25 154 0.0 6.4 0.00 6.50 6.50 98 1009.4
20260831000129 24 245 1.6 1.6 0.00 6.50 6.50 98 1009.4
20260830235607 25 176 1.6 1.6 0.00 6.50 6.50 98 1009.1
20260830235045 25 76 0.0 1.6 0.00 6.50 6.50 98 1009.2
20260830234523 25 326 0.0 3.2 0.00 6.50 6.50 98 1009.1
20260830233959 25 50 0.0 1.6 0.00 6.50 6.50 98 1008.9
20260830233437 24 273 1.6 1.6 0.00 6.50 6.50 99 1008.9
20260830232914 25 113 0.0 1.6 0.00 6.50 6.50 99 1009.0
20260830232352 24 269 0.0 1.6 0.00 6.50 6.50 99 1008.9
20260830231830 24 0 0.0 1.6 0.00 6.50 6.50 99 1008.8
20260830231307 25 25 0.0 1.6 0.00 6.50 6.50 99 1008.9
20260830230745 25 230 0.0 0.0 0.00 6.50 6.50 99 1008.8
20260830230223 25 224 0.0 1.6 0.00 6.50 6.50 98 1008.9
20260830225701 25 217 0.0 0.0 0.00 6.50 6.50 96 1008.7
20260830225139 25 209 0.0 3.2 0.00 6.50 6.50 94 1008.6
20260830224617 25 135 0.0 1.6 0.00 6.50 6.50 93 1008.8
20260830224055 25 233 0.0 3.2 0.00 6.50 6.50 95 1008.6
20260830223533 26 44 0.0 0.0 0.00 6.50 6.50 96 1008.5
20260830223011 25 50 0.0 0.0 0.00 6.50 6.50 96 1008.5
20260830222449 25 166 0.0 0.0 0.00 6.50 6.50 95 1008.7
20260830221926 26 255 0.0 0.0 0.00 6.50 6.50 94 1008.6
20260830221404 26 268 1.6 3.2 0.00 6.50 6.50 94 1008.5
20260830220842 26 44 0.0 0.0 0.00 6.50 6.50 93 1008.4
20260830220320 26 44 0.0 1.6 0.00 6.50 6.50 90 1008.6
20260830215758 26 229 0.0 0.0 0.00 6.50 6.50 94 1008.6
20260830215236 26 248 1.6 3.2 0.00 6.50 6.50 93 1008.5
20260830214714 26 30 0.0 1.6 0.00 6.50 6.50 93 1008.5
20260830214152 26 50 3.2 4.8 0.00 6.50 6.50 91 1008.2
20260830213630 26 19 4.8 4.8 0.00 6.50 6.50 94 1008.1
20260830213108 26 351 0.0 1.6 0.00 6.50 6.50 94 1008.0
20260830212546 26 135 0.0 0.0 0.00 6.50 6.50 95 1008.0
20260830212024 26 315 0.0 0.0 0.00 6.50 6.50 95 1008.3
20260830211501 26 242 0.0 0.0 0.00 6.50 6.50 95 1008.2
20260830210938 26 142 0.0 0.0 0.00 6.50 6.50 94 1008.3
20260830210415 26 25 0.0 3.2 0.00 6.50 6.50 94 1008.5
20260830205852 26 37 0.0 0.0 0.00 6.50 6.50 96 1008.4
20260830205330 26 44 0.0 0.0 0.03 6.50 6.50 96 1008.4
20260830204807 25 335 1.6 1.6 0.03 6.50 6.50 97 1008.5
20260830204246 25 204 1.6 3.2 0.03 6.50 6.50 96 1008.5
20260830203743 25 69 0.0 3.2 0.05 6.50 6.50 95 1008.4
20260830203241 25 59 0.0 1.6 0.05 6.50 6.50 97 1008.3
20260830202738 25 31 0.0 3.2 0.05 6.50 6.50 97 1008.4
20260830193430 24 142 0.0 1.6 0.18 6.45 6.43 99 1009.3
20260830193359 24 142 0.0 1.6 0.18 0.00 6.43 99 1009.3
20260830193314 24 154 0.0 3.2 0.18 0.00 6.43 99 1009.1